Regional Weather Roundup
Issued by NWS

Home | Current Version | Previous Version | Graphics & Text | Print | Product List | Glossary On
Versions: 1 2 3 4 5 6 7 8 9 10 11 12 13 14 15 16 17 18 19 20 21 22 23 24 25 26 27 28 29 30 31 32 33 34 35 36 37 38 39 40 41 42 43 44 45 46 47 48 49 50
000
ASUS43 KTOP 232059
RWRKS

WEATHER ROUNDUP FOR KANSAS
NATIONAL WEATHER SERVICE GOODLAND KS
400 PM CDT SAT JUL 23 2016

NOTE:  "FAIR" INDICATES FEW OR NO CLOUDS BELOW 12,000 FEET WITH NO
SIGNIFICANT WEATHER AND/OR OBSTRUCTIONS TO VISIBILITY.

KSZ001>006-013>018-027>032-041>047-232200-
NORTHWEST KANSAS

CITY           SKY/WX    TMP DP  RH WIND       PRES   REMARKS
GOODLAND       SUNNY    100  52  19 N10       29.94F HX  97
HAYS           SUNNY    106  55  18 SW17G25   29.81S HX 105
HILL CITY      SUNNY    100  63  29 W10       29.82F HX 102
RUSSELL        SUNNY    103  56  21 S22G33    29.81F HX 102
$$

KSZ061>065-074>080-084>089-232200-
SOUTHWEST KANSAS

CITY           SKY/WX    TMP DP  RH WIND       PRES   REMARKS
DODGE CITY     SUNNY    100  55  22 S21G31    29.87F HX  98
ELKHART          N/A    103  58  22 S13         N/A  HX 103
GARDEN CITY    SUNNY     99  60  27 S20       29.86F HX  99
GREAT BEND     MOSUNNY  100  55  22 SW18G25   29.82F HX  99
LIBERAL        SUNNY    102  55  21 S22G29    29.90F HX 101
$$

KSZ066>073-081>083-090>101-232200-
SOUTHEAST KANSAS

CITY           SKY/WX    TMP DP  RH WIND       PRES   REMARKS
CHANUTE        SUNNY     96  71  44 S14       29.89F HX 103
COFFEYVILLE    SUNNY    100  67  33 S14G22    29.89F HX 105
HUTCHINSON     CLOUDY   104  63  26 S17       29.84F HX 106
NEWTON         PTSUNNY   97  65  34 S14       29.86F HX  99
PARSONS        SUNNY     98  69  38 SW12      29.91F HX 104
WICHITA INTL   PTSUNNY  104  62  25 S22       29.83F HX 106
WICHITA JABRA  MOSUNNY   98  65  33 S15G29    29.85F HX 101
WINFIELD       SUNNY    101  66  31 S13G23    29.87F HX 105
$$

KSZ007>012-019>026-033>040-048>060-102>105-232200-
NORTHEAST KANSAS

CITY           SKY/WX    TMP DP  RH WIND       PRES   REMARKS
CONCORDIA      SUNNY     98  67  36 S15G28    29.82F HX 102
EMPORIA        CLOUDY    97  69  40 S17G25    29.88F HX 103
LAWRENCE       CLOUDY    93  75  55 S14       29.88S HX 104
MANHATTAN      CLOUDY    96  70  42 S8        29.83F HX 102
OLATHE IND     CLOUDY    93  74  53 S8        29.91F HX 103
OLATHE EXE     CLOUDY    90  74  59 S9        29.91F HX  99
SALINA         MOSUNNY  100  63  29 S16G28    29.82F HX 102
TOPEKA BILLARD CLOUDY    94  70  45 S12       29.86F HX 100
TOPEKA FORBES  CLOUDY    97  72  44 S13       29.88S HX 105
$$



USA.gov is the U.S. government's official web portal to all federal, state and local government web resources and services.